Dewpoint
-10 -12 -12 -12 -13 -14 -15 -17 -18 -17 -14 -11 -8 -6 -1 3 3 3 5 6 5 10 14 17 17 14 14 11 12 11 7 7 7 8 8 5 7 7 6 9 9 9 9 10 10
-10 -11 -12 -12 -12 -14 -15 -17 -18 -17 -14 -11 -9 -6 -1 4 3 3 5 4 5 14 15 17 14 11 14 9 7 4 7 6 5 5 7 7 7 7 8 8 8 9 9 10 10
-10 -10 -12 -12 -12 -13 -15 -16 -18 -17 -15 -12 -9 -7 -1 2 3 6 5 4 4 10 12 12 9 9 8 7 2 2 5 4 6 4 6 6 7 7 6 9 8 9 9 9 10
-10 -10 -11 -12 -12 -12 -14 -16 -18 -18 -15 -13 -10 -7 -3 0 6 5 4 4 5 8 14 12 5 5 -1 1 2 3 2 4 6 7 5 5 5 5 8 9 9 9 9 10 10
-9 -10 -11 -12 -11 -12 -13 -15 -17 -18 -16 -13 -9 -8 -4 4 6 4 4 4 6 9 9 3 2 0 -1 -2 -0 3 3 4 6 6 6 6 6 6 8 10 9 9 9 9 10
-9 -10 -11 -12 -11 -11 -13 -15 -17 -18 -16 -12 -9 -8 -3 4 7 4 3 5 9 8 4 3 3 2 -0 -4 -2 2 3 3 5 5 6 5 7 8 8 9 9 8 8 9 9
-10 -10 -11 -12 -11 -11 -13 -15 -17 -18 -16 -12 -9 -7 1 2 5 8 10 9 7 6 5 4 2 2 -2 -3 -3 4 8 8 4 9 6 7 8 8 9 9 9 8 8 8 9
-11 -10 -11 -12 -11 -11 -13 -15 -17 -18 -17 -12 -8 -6 3 2 5 6 7 6 6 5 5 5 3 1 0 -2 -2 4 5 5 11 10 9 8 10 8 8 10 10 8 8 8 9
-12 -10 -11 -11 -10 -11 -14 -16 -18 -19 -17 -12 -7 -6 3 -1 2 5 6 3 3 4 4 4 1 -0 -2 -1 1 0 5 2 11 10 7 8 11 8 8 9 10 10 8 8 9
-13 -11 -11 -11 -9 -12 -15 -18 -19 -20 -18 -11 -2 -1 -1 -2 1 1 4 4 3 2 1 0 -0 -1 -1 -1 -0 -1 -3 -5 -3 -1 7 9 9 9 8 9 10 11 9 9 11
-12 -12 -11 -11 -10 -12 -16 -8 -9 -7 -2 -9 -10 -3 -1 -2 -0 -2 0 2 2 0 1 -2 -2 -0 -2 -5 -6 -5 -4 -4 -5 -7 -7 -2 5 7 6 8 9 10 10 10 10
-12 -13 -11 -11 -10 -14 -12 3 1 -2 -5 -9 -10 -10 -6 -4 -4 -2 -1 0 -0 -0 -2 -1 -2 -2 -4 -7 -7 -6 -4 -4 -6 -7 -10 -8 -4 5 5 5 8 9 10 10 11
-11 -13 -11 -11 -12 -12 -3 3 -1 -3 -5 -9 -11 -10 -9 -7 -5 -5 -4 -2 -1 -1 -1 -0 -3 -4 -6 -6 -6 -6 -6 -7 -10 -11 -11 -9 -6 -5 2 4 5 8 9 9 10
-10 -13 -12 -10 -6 1 -1 -0 -3 -4 -4 -10 -13 -12 -12 -9 -9 -5 -5 -5 -6 -4 -3 -3 -5 -3 -4 -6 -7 -5 -7 -7 -11 -10 -7 -10 -1 1 -4 1 5 5 7 8 10
-9 -12 -12 -10 2 0 0 -3 -3 -4 -1 -12 -10 -14 -12 -9 -11 -6 -5 -8 -6 -7 -5 -4 -6 -5 -7 -6 -7 -6 -9 -10 -10 -9 -10 -10 -4 -3 -7 -1 1 1 4 6 9
-8 -11 -13 -9 -1 1 -0 -3 -3 -3 -5 -12 -13 -14 -12 -10 -12 -11 -9 -9 -8 -8 -9 -7 -9 -10 -8 -7 -8 -9 -9 -9 -9 -10 -8 -10 -5 1 -3 -2 -2 -3 -2 0 6
-7 -10 -13 -5 -2 -2 -2 -3 -3 -2 -12 -11 -12 -12 -12 -11 -12 -12 -10 -10 -8 -7 -6 -7 -8 -11 -10 -8 -10 -9 -10 -6 -4 -4 -3 -11 -3 -3 -4 0 0 0 0 0 2
-6 -9 -13 -12 -3 -2 -1 -2 0 -8 -7 -10 -11 -12 -12 -12 -12 -13 -11 -10 -12 -10 -9 -8 -9 -12 -12 -11 -8 -8 -11 -8 -2 -5 -5 -10 -2 -2 -3 0 3 5 6 4 3
-7 -9 -14 -14 -9 -1 -1 -1 -2 -5 -13 -9 -11 -12 -12 -13 -13 -12 -12 -11 -11 -12 -10 -11 -10 -13 -12 -13 -10 -9 -8 -13 -13 -11 -8 -6 -6 -5 0 1 4 8 9 8 1
-5 1 -4 -6 -6 -4 -1 -1 -6 -10 -8 -6 -9 -13 -10 -12 -12 -12 -11 -13 -13 -13 -13 -10 -5 -10 -12 -12 -12 -10 -11 -10 -8 -2 -3 -3 -1 4 4 2 6 9 10 11 8
-5 -1 -5 -5 -5 -5 -2 -5 -6 -7 -9 -3 -6 -10 -12 -12 -12 -11 -10 -12 -13 -13 -13 -10 -9 -10 -11 -11 -10 -9 -7 -10 -12 -7 -5 -2 1 -1 2 1 6 9 11 13 13
0 -3 -0 -3 -5 -5 -4 -7 -9 -8 -8 -8 -4 -4 -8 -11 -11 -11 -10 -11 -12 -13 -13 -10 -10 -6 -9 -11 -8 -7 -7 -7 -5 -1 -6 -5 0 -2 -1 0 3 8 9 12 14
2 -1 0 -4 -5 -6 -7 -7 -8 -7 -8 -8 -5 -5 -7 -8 -9 -11 -11 -12 -12 -13 -12 -12 -9 -5 -7 -7 -8 -8 -10 -10 -9 -10 -2 -4 2 -2 -1 1 1 2 10 12 12
3 1 0 -2 -6 -9 -8 -6 -6 -7 -6 -9 -7 -7 -6 -6 -9 -8 -10 -11 -13 -13 -9 -9 -10 -9 -4 -4 -8 -8 -8 -6 -7 -6 -5 -4 -3 -4 -1 1 1 2 5 10 12
1 2 -2 -2 -2 -7 -7 -6 -5 -4 -6 -9 -6 -5 -5 -5 -6 -8 -9 -9 -11 -9 -10 -11 -8 -9 -9 -6 -7 -6 -6 -6 -4 -5 -4 -5 -5 -6 1 1 1 3 5 5 10
4 3 3 4 -5 -8 -6 -5 -5 -7 -8 -9 -7 -7 -4 -4 -5 -7 -9 -7 -6 -8 -9 -10 -5 -6 -5 -8 -7 -6 -9 -8 -7 -6 -6 -5 -4 -7 -4 -3 -3 4 5 8 9
7 6 6 5 0 -4 -7 -8 -6 -7 -8 -11 -8 -6 -3 -4 -7 -8 -9 -8 -7 -8 -7 -7 -8 -6 -3 -5 -6 -5 -7 -6 -6 -6 -6 -3 -4 -3 -3 -2 -1 4 5 9 10
Wind_Speed
5 5 4 3 3 4 4 4 3 3 3 3 3 3 3 1 2 3 3 1 4 1 2 3 9 8 13 22 12 13 8 9 14 13 7 10 11 20 13 16 5 14 25 25 23
5 5 4 4 4 4 4 4 4 4 4 4 4 3 3 3 5 8 3 2 2 3 4 13 19 14 20 10 7 6 10 19 14 12 7 17 13 12 12 13 10 27 25 25 23
6 5 5 5 4 4 5 5 5 5 4 5 5 4 4 6 6 6 3 2 4 1 1 8 14 13 16 16 11 16 12 16 17 17 17 13 8 12 9 15 17 25 28 25 23
6 6 5 5 5 5 5 5 5 5 5 5 5 5 6 4 2 6 4 1 6 9 12 24 22 21 8 4 9 11 17 15 9 4 17 11 14 14 17 19 18 22 24 24 22
6 6 6 5 5 5 5 5 6 5 5 5 6 5 5 7 1 7 4 1 3 12 15 19 17 14 7 7 12 11 9 14 10 4 6 13 15 18 15 18 19 23 22 21 19
6 6 6 5 5 5 5 5 6 6 6 5 6 5 5 10 1 5 5 2 6 8 11 10 15 15 11 3 7 4 10 12 11 12 2 9 4 16 14 18 20 22 21 19 18
6 6 6 6 5 5 5 5 5 6 5 5 5 5 8 7 3 4 7 6 5 6 11 9 14 21 7 6 4 23 9 13 14 51 14 26 5 12 18 18 20 20 20 18 18
6 6 6 6 5 5 5 5 5 5 5 5 5 4 7 5 5 7 9 8 8 8 9 11 13 19 21 5 13 15 10 9 28 24 8 14 2 16 18 19 18 19 19 18 17
6 7 6 7 5 5 4 3 3 3 4 5 4 5 13 7 10 9 10 9 9 9 10 13 14 20 10 13 5 14 13 6 19 39 21 9 6 20 18 17 17 18 19 19 18
7 6 7 6 5 3 2 1 2 3 4 6 6 5 16 13 10 11 11 9 9 11 11 14 17 16 15 11 7 0 9 5 6 8 19 19 16 15 19 19 16 17 18 19 19
8 6 6 6 5 2 5 2 2 4 13 15 11 15 6 5 12 10 10 10 10 13 13 15 11 14 7 10 6 8 8 1 8 5 9 10 13 16 17 19 20 17 19 19 19
8 7 5 5 4 4 6 4 4 5 7 21 14 21 3 5 11 14 11 13 14 12 15 9 10 15 11 3 4 7 11 9 7 5 5 6 7 12 17 13 21 20 19 21 20
9 7 4 3 3 6 7 9 5 5 8 20 24 17 12 10 15 16 14 15 14 12 13 13 3 11 2 5 8 11 7 10 7 8 14 10 9 9 14 20 13 18 21 21 22
9 7 3 2 2 4 9 5 4 4 5 12 23 21 19 16 17 18 20 16 11 13 14 9 14 5 7 8 11 6 8 6 6 8 8 13 6 11 13 16 16 16 17 21 25
9 7 5 9 3 4 1 3 4 4 5 17 20 8 18 19 1 20 11 15 14 11 8 8 9 2 8 11 6 11 9 8 9 8 13 7 3 4 5 11 15 14 22 22 26
9 7 6 8 9 3 3 4 2 6 11 9 11 15 18 23 19 12 16 13 12 14 12 17 3 7 10 10 2 9 12 14 15 13 10 4 4 5 7 5 5 7 6 14 24
10 8 10 12 8 4 5 6 6 9 11 11 19 17 19 15 20 13 14 14 14 10 14 11 14 8 10 10 9 12 16 12 11 6 5 6 11 9 8 6 3 4 9 9 11
11 9 12 16 9 8 6 8 10 15 16 12 13 15 20 17 19 16 13 16 18 17 11 10 13 16 10 11 12 11 11 8 3 2 10 6 8 6 9 9 7 8 16 9 14
11 8 12 13 17 7 12 12 10 18 17 11 12 12 17 20 12 16 17 16 17 19 18 10 4 14 4 7 13 3 6 9 9 5 1 6 10 9 11 7 9 15 10 14 13
9 8 11 11 13 12 10 17 20 23 8 14 13 13 16 19 17 17 16 17 17 20 20 18 10 9 8 4 4 11 9 7 7 1 3 8 10 8 9 4 11 12 14 12 8
7 7 12 16 14 15 12 19 21 23 8 9 11 13 14 14 19 16 14 13 18 15 15 17 6 9 8 9 12 8 10 5 4 4 3 3 6 12 7 4 12 16 9 9 10
7 9 13 14 14 17 14 21 25 23 8 12 17 20 15 17 17 17 15 15 18 14 17 16 7 12 14 15 2 7 9 6 7 3 7 5 9 12 5 9 17 17 13 9 7
8 15 9 16 10 13 20 22 25 21 11 17 14 19 16 13 14 16 17 16 13 15 13 13 10 9 13 9 7 7 7 6 8 7 6 5 7 13 13 12 11 8 10 10 6
7 7 11 17 21 20 18 19 21 23 14 21 16 18 16 15 16 14 20 5 10 14 5 4 15 15 11 14 12 14 10 5 7 6 8 9 10 11 10 11 8 8 8 5 9
8 8 10 7 16 19 20 19 17 18 18 21 15 15 17 17 16 12 18 15 12 10 6 10 16 16 14 6 5 11 11 11 8 6 4 11 7 6 11 8 6 6 7 11 8
8 15 19 22 16 20 18 19 18 14 19 15 18 17 19 14 17 17 17 14 13 14 14 13 15 16 13 9 7 9 6 6 7 6 5 6 4 4 12 8 6 8 5 6 6
12 13 13 16 15 13 15 20 19 17 18 23 16 14 18 19 24 18 19 18 15 16 15 17 15 15 13 10 6 10 10 10 9 10 7 6 4 7 1 2 2 4 3 3 4
Wind_Direction
359 347 334 319 303 286 284 273 269 249 242 256 263 270 273 226 199 48 3 263 339 33 128 230 220 287 273 15 308 298 51 101 78 98 113 103 68 72 107 133 102 121 141 142 144
357 343 330 316 308 293 286 273 254 247 234 250 254 253 259 245 250 279 258 314 18 170 220 240 247 227 125 203 148 75 51 73 78 108 97 102 88 122 133 96 102 118 130 142 147
344 340 326 314 303 296 286 277 260 255 237 247 247 244 241 260 292 138 208 303 350 273 79 277 273 260 271 161 62 79 89 63 58 75 84 92 141 133 132 122 125 131 142 149 152
339 332 327 317 305 297 289 277 264 256 248 244 246 242 246 279 349 153 200 288 56 6 291 279 276 256 94 92 118 74 96 98 107 109 90 104 85 55 70 108 129 144 149 153 158
335 330 326 318 304 294 289 276 263 252 250 247 252 249 257 258 115 174 192 251 23 4 319 342 8 16 75 356 95 102 98 107 112 117 73 61 92 94 92 110 130 144 152 158 163
331 331 324 319 304 292 285 277 263 247 240 237 247 254 274 263 79 180 204 206 36 305 317 4 347 326 313 52 83 118 124 119 148 119 138 71 146 104 115 125 136 149 158 164 167
327 327 325 314 303 291 283 274 267 253 238 228 238 251 267 272 181 225 194 235 273 294 317 348 328 317 313 136 170 109 151 273 104 17 29 351 123 109 131 135 143 157 165 168 173
320 321 319 310 302 293 283 275 264 249 228 213 220 239 265 201 197 212 211 233 254 273 289 306 309 290 284 211 219 140 193 174 105 133 287 147 131 132 149 148 155 158 168 170 174
319 315 313 307 300 289 283 276 255 227 209 194 166 245 254 234 224 217 212 232 244 267 275 287 296 288 264 234 289 167 198 179 134 162 163 127 236 150 158 155 162 162 171 174 177
318 308 307 305 297 282 258 199 203 191 184 187 227 239 242 225 209 210 215 229 259 266 257 249 254 255 253 271 348 14 131 117 75 129 176 140 188 159 166 159 165 175 179 179 182
317 309 302 302 291 249 178 146 234 229 204 204 195 217 96 171 168 206 207 221 246 257 270 234 237 259 36 36 355 358 346 354 117 100 321 331 144 166 173 168 163 184 185 184 188
316 309 300 290 275 225 197 240 6 331 258 230 250 220 194 196 213 227 203 222 222 243 229 262 220 269 65 65 279 276 262 36 95 133 226 275 297 165 166 177 172 180 187 188 192
319 308 295 278 246 214 200 294 292 315 259 213 216 221 214 222 242 206 196 221 249 217 257 256 282 51 108 185 247 232 273 38 329 305 251 225 211 230 177 162 183 191 185 193 193
321 305 273 181 165 241 255 261 302 290 273 208 197 223 219 219 241 234 194 221 216 263 254 261 267 117 230 255 271 348 32 319 293 294 311 199 117 192 208 164 168 197 199 191 189
320 297 244 204 206 210 104 286 266 227 265 162 182 181 198 199 286 202 186 206 254 217 264 250 233 184 253 244 325 309 356 299 273 255 248 201 162 102 196 164 174 208 201 196 190
316 288 239 225 231 142 278 281 247 230 242 158 143 185 192 207 231 202 192 221 222 260 259 267 28 294 221 245 321 285 281 252 246 237 236 132 88 80 93 48 12 267 207 201 194
308 279 234 214 184 240 243 230 212 240 186 166 166 192 209 191 219 170 197 198 221 215 238 219 249 200 262 279 243 243 259 262 233 225 198 99 120 98 144 95 332 312 270 241 214
302 274 239 220 224 262 232 227 240 208 232 128 187 193 206 200 210 199 206 215 212 234 234 211 206 208 192 229 268 238 302 305 176 339 132 130 110 100 79 58 40 5 17 340 262
305 275 248 213 217 220 227 221 222 258 201 227 172 197 201 212 201 208 214 215 209 224 247 208 164 157 172 195 250 235 293 356 296 198 342 134 107 114 76 41 48 37 45 350 346
301 251 246 206 204 203 233 241 241 253 324 309 198 208 201 210 200 210 202 219 227 205 241 272 119 173 168 242 239 291 332 279 275 294 323 192 99 87 80 37 83 50 21 17 14
281 239 180 179 182 210 228 234 247 271 291 292 285 216 235 210 213 230 222 220 214 197 225 257 227 145 159 213 201 191 215 234 293 340 326 123 124 133 136 98 100 96 68 29 20
269 241 173 179 196 221 230 238 253 269 221 255 277 284 270 236 210 211 219 220 188 219 203 243 300 168 198 215 291 342 343 304 317 112 63 340 101 94 75 75 64 96 89 75 61
264 238 183 193 219 225 230 248 248 253 236 259 238 270 273 258 225 209 241 229 174 220 206 231 256 195 189 166 207 239 242 263 324 295 142 266 123 135 131 90 62 27 109 105 91
274 233 162 212 236 256 236 226 242 243 259 273 266 238 260 274 259 204 239 150 166 205 53 273 265 258 189 217 196 188 234 146 285 301 354 37 110 92 99 95 75 38 24 99 118
244 271 235 194 219 235 258 264 231 243 229 240 265 270 239 244 251 209 229 155 181 181 241 234 252 266 284 127 151 172 195 200 208 289 301 347 356 47 105 89 61 52 28 318 118
280 309 318 301 244 209 230 254 262 236 236 213 242 239 253 245 241 238 211 184 181 199 214 228 249 274 295 275 165 242 229 244 254 241 265 267 292 299 98 86 23 80 31 339 1
325 328 316 283 281 272 218 233 240 266 263 247 220 233 257 245 256 249 225 229 175 202 201 226 227 249 249 265 221 237 250 259 259 268 280 264 239 113 137 159 76 79 1 108 338
Height
1530 1529 1528 1528 1527 1526 1526 1526 1526 1527 1526 1526 1526 1526 1525 1525 1523 1522 1523 1521 1518 1514 1513 1511 1512 1514 1510 1514 1490 1495 1494 1505 1501 1505 1507 1503 1504 1510 1517 1522 1522 1527 1537 1544 1550
1530 1529 1528 1528 1527 1526 1526 1526 1525 1526 1527 1526 1526 1526 1526 1524 1523 1523 1523 1521 1518 1515 1515 1512 1508 1504 1514 1496 1493 1491 1501 1501 1499 1501 1502 1505 1509 1512 1516 1521 1524 1532 1541 1547 1551
1530 1529 1528 1528 1527 1527 1526 1525 1526 1525 1526 1526 1526 1526 1526 1524 1524 1523 1522 1521 1518 1516 1514 1511 1508 1508 1497 1499 1495 1494 1503 1499 1503 1505 1505 1510 1510 1511 1510 1520 1528 1536 1542 1548 1552
1530 1529 1529 1528 1527 1527 1526 1525 1525 1526 1526 1526 1526 1526 1526 1526 1521 1521 1521 1520 1519 1514 1511 1505 1499 1498 1494 1493 1498 1500 1500 1506 1510 1508 1510 1509 1510 1513 1514 1521 1529 1538 1545 1549 1553
1530 1530 1529 1528 1527 1526 1526 1525 1525 1525 1526 1526 1526 1526 1527 1526 1522 1521 1522 1521 1520 1516 1512 1506 1500 1495 1495 1495 1496 1500 1503 1507 1514 1512 1514 1512 1515 1519 1521 1527 1533 1539 1546 1550 1553
1530 1529 1529 1528 1527 1526 1526 1525 1525 1525 1525 1526 1526 1526 1527 1526 1523 1521 1522 1521 1520 1521 1516 1513 1509 1505 1498 1499 1498 1500 1503 1508 1510 1511 1510 1514 1517 1519 1525 1530 1535 1540 1545 1548 1551
1530 1529 1529 1527 1527 1526 1525 1525 1525 1525 1525 1526 1526 1526 1526 1525 1524 1523 1524 1523 1524 1524 1521 1518 1515 1507 1498 1498 1500 1502 1517 1509 1506 1517 1519 1522 1516 1520 1525 1530 1535 1539 1543 1547 1550
1529 1528 1528 1527 1526 1525 1525 1524 1524 1525 1525 1526 1526 1527 1524 1523 1523 1524 1524 1524 1524 1523 1522 1520 1517 1509 1501 1500 1497 1501 1506 1513 1520 1535 1536 1534 1528 1519 1524 1528 1533 1537 1541 1545 1549
1529 1528 1527 1527 1525 1524 1524 1524 1524 1525 1525 1526 1528 1528 1522 1520 1521 1522 1523 1523 1522 1522 1521 1519 1517 1505 1498 1496 1505 1493 1514 1507 1526 1523 1523 1520 1526 1514 1521 1525 1531 1535 1539 1543 1547
1529 1527 1526 1526 1525 1524 1523 1523 1523 1524 1526 1527 1527 1530 1520 1517 1518 1520 1522 1522 1522 1519 1518 1516 1511 1502 1495 1490 1517 1503 1500 1503 1510 1508 1511 1516 1512 1513 1515 1521 1528 1533 1537 1541 1545
1528 1527 1525 1525 1524 1523 1524 1523 1526 1525 1523 1517 1515 1515 1510 1514 1515 1519 1520 1521 1522 1519 1514 1506 1508 1505 1494 1494 1497 1496 1501 1504 1500 1501 1505 1501 1503 1506 1510 1514 1522 1529 1534 1539 1543
1528 1526 1525 1524 1524 1523 1523 1523 1521 1523 1516 1515 1513 1513 1512 1514 1516 1516 1518 1520 1517 1516 1509 1505 1509 1494 1494 1499 1502 1500 1501 1501 1497 1500 1505 1504 1505 1500 1506 1510 1514 1522 1529 1534 1539
1527 1525 1524 1524 1523 1523 1522 1523 1522 1522 1517 1506 1510 1511 1512 1515 1512 1510 1515 1515 1512 1511 1506 1505 1496 1496 1500 1503 1506 1500 1499 1505 1511 1500 1495 1501 1508 1504 1500 1504 1511 1514 1519 1527 1533
1526 1525 1524 1524 1526 1524 1524 1524 1523 1523 1516 1496 1503 1506 1509 1510 1508 1506 1508 1513 1510 1509 1503 1500 1494 1499 1503 1507 1499 1505 1495 1499 1504 1507 1515 1490 1528 1504 1496 1499 1506 1510 1512 1518 1526
1525 1524 1524 1524 1523 1524 1525 1524 1524 1524 1534 1476 1493 1499 1501 1506 1497 1502 1504 1509 1507 1504 1504 1501 1499 1501 1507 1502 1496 1501 1495 1499 1499 1504 1500 1496 1509 1509 1495 1500 1500 1503 1504 1508 1515
1524 1523 1523 1524 1523 1523 1524 1525 1525 1524 1523 1485 1489 1492 1497 1502 1499 1497 1505 1508 1506 1505 1499 1497 1498 1498 1499 1496 1498 1498 1500 1496 1492 1492 1515 1497 1503 1519 1505 1502 1499 1498 1498 1502 1506
1522 1521 1522 1521 1523 1524 1525 1525 1524 1521 1474 1483 1487 1490 1492 1494 1496 1496 1502 1506 1510 1519 1513 1499 1500 1497 1499 1501 1497 1497 1500 1516 1521 1514 1527 1490 1505 1508 1497 1497 1498 1498 1499 1499 1503
1519 1518 1518 1518 1520 1524 1525 1522 1524 1485 1478 1465 1475 1484 1491 1487 1492 1491 1497 1503 1499 1496 1496 1506 1513 1493 1493 1500 1498 1492 1494 1505 1531 1517 1514 1491 1516 1510 1492 1496 1498 1496 1496 1498 1498
1517 1515 1514 1515 1518 1521 1523 1518 1503 1477 1465 1464 1472 1485 1489 1483 1485 1488 1493 1495 1489 1492 1501 1492 1496 1484 1488 1492 1492 1493 1500 1481 1493 1485 1503 1504 1498 1493 1495 1499 1499 1501 1503 1504 1499
1515 1515 1513 1513 1517 1521 1518 1510 1488 1473 1470 1465 1477 1475 1487 1483 1485 1484 1487 1483 1484 1483 1484 1483 1503 1487 1490 1493 1492 1493 1490 1504 1491 1523 1529 1511 1508 1521 1507 1505 1502 1507 1509 1509 1506
1514 1511 1504 1511 1516 1517 1510 1500 1488 1480 1478 1478 1472 1472 1474 1475 1474 1481 1482 1477 1477 1477 1482 1477 1480 1496 1492 1498 1495 1495 1497 1492 1485 1494 1519 1525 1523 1498 1505 1502 1503 1510 1515 1516 1513
1514 1507 1506 1509 1513 1507 1502 1495 1487 1478 1478 1480 1477 1471 1466 1465 1470 1478 1478 1472 1472 1474 1484 1478 1476 1499 1498 1483 1480 1483 1489 1485 1504 1512 1502 1508 1522 1496 1499 1500 1503 1510 1515 1519 1520
1513 1503 1505 1507 1504 1498 1495 1490 1485 1478 1481 1480 1479 1473 1464 1464 1472 1468 1468 1465 1471 1475 1479 1481 1485 1498 1498 1488 1487 1493 1489 1488 1487 1486 1510 1521 1523 1494 1499 1503 1509 1512 1516 1519 1522
1514 1495 1498 1502 1499 1491 1485 1482 1482 1477 1480 1477 1474 1473 1470 1468 1459 1467 1468 1466 1470 1475 1481 1483 1481 1480 1497 1489 1478 1496 1494 1489 1496 1505 1504 1505 1505 1499 1499 1506 1511 1515 1518 1520 1521
1510 1489 1483 1486 1491 1491 1486 1478 1474 1476 1477 1480 1476 1470 1470 1475 1467 1464 1465 1466 1474 1479 1483 1482 1489 1476 1468 1469 1473 1479 1487 1490 1499 1500 1513 1504 1505 1499 1504 1508 1514 1517 1521 1521 1519
1508 1500 1489 1482 1476 1481 1484 1479 1474 1468 1472 1473 1477 1471 1468 1467 1465 1464 1461 1462 1473 1479 1482 1480 1492 1480 1483 1470 1476 1487 1483 1486 1489 1491 1496 1500 1506 1497 1503 1509 1514 1518 1523 1524 1524
1509 1505 1502 1487 1478 1472 1473 1475 1475 1472 1468 1466 1467 1469 1467 1464 1458 1455 1455 1458 1464 1474 1480 1483 1485 1487 1496 1476 1480 1500 1488 1485 1486 1485 1489 1505 1498 1499 1503 1507 1513 1519 1524 1526 1528